Location: Oberkirch
(48.5323°N, 8.0787°E)
Time: 14:43:29
(UTC+00:00)

S-56A Canister/Altair - Pass Details

Date: 17 February 2026
Orbit: 633 x 2484 km, 38.9° (Epoch: 7 March)

Event Time Altitude Azimuth Distance (km) Brightness Sun altitude
Exits shadow 03:28:06 39° 198° (SSW) 2,377 9.6 -30.8°
Maximum altitude 03:28:19 39° 195° (SSW) 2,389 9.7 -30.8°
Drops below altitude 10° 03:39:32 10° 134° (SE) 4,716 11.9 -29.0°
Sets 03:44:01 0° 128° (SE) 5,917 12.5 -28.3°
